Weather History for Lamar, CO

Change the Weather History Date:

Tuesday, June 3, 2014

  Actual Average Record
Temperature  
Mean Temperature 85 °F 68 °F  
Max Temperature 102 °F 84 °F 102 °F (2013)
Min Temperature 68 °F 52 °F 35 °F (1919)
Degree Days  
Heating Degree Days 0 2  
Month to date heating degree days 0 6  
Since 1 June heating degree days 0 6  
Since 1 July heating degree days 5455 5546  
Cooling Degree Days 20 5  
Month to date cooling degree days 41 13  
Year to date cooling degree days 134 73  
Since 1 June cooling degree days 41 13  
Growing Degree Days 35 (Base 50)    
Moisture  
Dew Point 50 °F    
Average Humidity 46    
Maximum Humidity 81    
Minimum Humidity 11    
Precipitation  
Precipitation 0.00 in 0.08 in 1.30 in (1978)
Month to date precipitation 0.00 0.24  
Year to date precipitation 3.06 5.09  
Sea Level Pressure  
Sea Level Pressure 29.66 in    
Wind  
Wind Speed 12 mph (SSW)    
Max Wind Speed 35 mph    
Max Gust Speed 40 mph    
Visibility 8 miles    
Events      
T = Trace of Precipitation, MM = Missing Value Source: NWS Daily Summary

Daily Weather History Graph

Daily Weather History Graph

Search for Another Location

Airport:

Trip Planner

Search our weather history database for the weather conditions in past years. The results will help you decide how hot, cold, wet, or windy it might be!

Date:

Astronomy

Jun. 03, 2014 Rise Set
Actual Time 5:28 AM MDT 8:09 PM MDT
Civil Twilight 4:57 AM MDT 8:40 PM MDT
Nautical Twilight 4:19 AM MDT 9:18 PM MDT
Astronomical Twilight 3:35 AM MDT 10:02 PM MDT
Moon 10:50 AM MDT (6/3) No Moon Set
Length of Visible Light 15h 42m
Length of Day
14h 40m
Waxing Crescent, 30% of the Moon is Illuminated
Jun 3
Waxing Crescent
Jun 5
First Quarter
Jun 12
Full
Jun 19
Last Quarter
Jun 27
New

Hourly Weather History & Observations

Time (MDT) Temp. Heat Index Dew Point Humidity Pressure Visibility Wind Dir Wind Speed Gust Speed Precip Events Conditions
12:53 AM 68.0 °F - 62.1 °F 81% 29.83 in 7.0 mi SE 10.4 mph - N/A   Clear
1:53 AM 70.0 °F - 62.1 °F 76% 29.82 in 7.0 mi South 12.7 mph - N/A   Clear
2:53 AM 70.0 °F - 61.0 °F 73% 29.79 in 7.0 mi SSE 10.4 mph - N/A   Clear
3:53 AM 71.1 °F - 62.1 °F 73% 29.77 in 8.0 mi SSE 12.7 mph - N/A   Clear
4:53 AM 70.0 °F - 62.1 °F 76% 29.76 in 7.0 mi South 6.9 mph - N/A   Clear
5:53 AM 69.1 °F - 62.1 °F 78% 29.76 in 6.0 mi SSE 5.8 mph - N/A   Haze
6:53 AM 70.0 °F - 63.0 °F 78% 29.76 in 6.0 mi SE 5.8 mph - N/A   Haze
7:53 AM 73.0 °F - 63.0 °F 71% 29.75 in 7.0 mi SE 9.2 mph - N/A   Clear
8:53 AM 79.0 °F - 64.0 °F 60% 29.73 in 7.0 mi South 10.4 mph - N/A   Clear
9:53 AM 82.9 °F 83.7 °F 62.1 °F 49% 29.70 in 8.0 mi South 13.8 mph - N/A   Clear
10:53 AM 87.1 °F 86.7 °F 60.1 °F 40% 29.67 in 8.0 mi SSW 16.1 mph - N/A   Clear
11:53 AM 93.9 °F 91.4 °F 53.1 °F 25% 29.63 in 9.0 mi WSW 10.4 mph 19.6 mph N/A   Clear
12:53 PM 98.1 °F - 50.0 °F 20% 29.59 in 9.0 mi SSW 24.2 mph 29.9 mph N/A   Clear
1:53 PM 100.0 °F - 36.0 °F 11% 29.55 in 9.0 mi WSW 17.3 mph 40.3 mph N/A   Clear
2:04 PM 99.0 °F - 34.0 °F 10% 29.73 in 9.0 mi WSW 19.6 mph 28.8 mph N/A   Clear
2:53 PM 102.0 °F - 39.9 °F 12% 29.51 in 9.0 mi SW 19.6 mph 24.2 mph N/A   Clear
3:53 PM 98.1 °F - 48.9 °F 19% 29.50 in 8.0 mi SW 26.5 mph 38.0 mph N/A   Clear
4:10 PM 98.1 °F - 39.0 °F 13% 29.69 in 8.0 mi West 13.8 mph 28.8 mph N/A   Partly Cloudy
4:53 PM 96.1 °F - 36.0 °F 12% 29.49 in 9.0 mi WNW 6.9 mph - N/A   Clear
5:53 PM 93.0 °F - 36.0 °F 13% 29.49 in 9.0 mi West 10.4 mph - N/A   Clear
6:53 PM 88.0 °F - 34.0 °F 15% 29.52 in 8.0 mi SSW 11.5 mph - N/A   Clear
7:53 PM 84.0 °F - 34.0 °F 17% 29.52 in 9.0 mi SSW 12.7 mph - N/A   Clear
9:53 PM 78.1 °F - 33.1 °F 19% 29.55 in 10.0 mi SSW 10.4 mph - N/A   Clear
11:53 PM 73.9 °F - 37.9 °F 27% 29.61 in 10.0 mi North 9.2 mph - N/A   Clear